Change the Weather History Date:

Thursday, January 30, 2014

  Actual Average Record
Temperature  
Mean Temperature 30 °F 27 °F  
Max Temperature 37 °F 35 °F 64 °F (2012)
Min Temperature 23 °F 19 °F -13 °F (1965)
Degree Days  
Heating Degree Days 35 38  
Month to date heating degree days 1263 1160  
Since 1 July heating degree days 3579 3351  
Cooling Degree Days 0 0  
Month to date cooling degree days 0 0  
Year to date cooling degree days 0 0  
Moisture  
Dew Point 19 °F    
Average Humidity 61    
Maximum Humidity 89    
Minimum Humidity 32    
Precipitation  
Precipitation 0.02 in 0.05 in 1.77 in (2002)
Month to date precipitation 0.66 1.47  
Year to date precipitation 0.66 1.47  
Sea Level Pressure  
Sea Level Pressure 29.82 in    
Wind  
Wind Speed 17 mph (SW)    
Max Wind Speed 32 mph    
Max Gust Speed 43 mph    
Visibility 7 miles    
Events Fog , Snow    
T = Trace of Precipitation, MM = Missing Value Source: NWS Daily Summary

Daily Weather History Graph

Daily Weather History Graph

Search for Another Location

Airport or City:

Trip Planner

Search our weather history database for the weather conditions in past years. The results will help you decide how hot, cold, wet, or windy it might be!

Date:

Astronomy

Jan. 30, 2014 Rise Set
Actual Time 7:14 AM CST 5:21 PM CST
Civil Twilight 6:46 AM CST 5:50 PM CST
Nautical Twilight 6:13 AM CST 6:22 PM CST
Astronomical Twilight 5:41 AM CST 6:54 PM CST
Moon 6:41 AM CST (1/30) 5:33 PM CST (1/30)
Length of Visible Light 11h 04m
Length of Day
10h 06m
Waning Crescent, 0% of the Moon is Illuminated
Jan 30
Waning Crescent
Jan 30
New
Feb 6
First Quarter
Feb 14
Full
Feb 22
Last Quarter

Hourly Weather History & Observations

Time (CST) Temp. Windchill Dew Point Humidity Pressure Visibility Wind Dir Wind Speed Gust Speed Precip Events Conditions
12:54 AM 28.9 °F 15.4 °F 8.1 °F 41% 29.96 in 10.0 mi South 21.9 mph 29.9 mph N/A   Clear
1:54 AM 28.0 °F 16.1 °F 8.1 °F 43% 29.94 in 10.0 mi South 16.1 mph - N/A   Clear
2:54 AM 28.9 °F 15.8 °F 8.1 °F 41% 29.92 in 10.0 mi South 20.7 mph 27.6 mph N/A   Clear
3:54 AM 28.0 °F 15.7 °F 8.1 °F 43% 29.90 in 10.0 mi South 17.3 mph 25.3 mph N/A   Clear
4:54 AM 28.0 °F 15.3 °F 8.1 °F 43% 29.86 in 10.0 mi South 18.4 mph 25.3 mph N/A   Clear
5:54 AM 28.9 °F 16.1 °F 8.1 °F 41% 29.83 in 10.0 mi South 19.6 mph 29.9 mph N/A   Clear
6:54 AM 30.0 °F 17.9 °F 8.1 °F 40% 29.81 in 10.0 mi South 18.4 mph 24.2 mph N/A   Clear
7:54 AM 30.9 °F 18.4 °F 8.1 °F 38% 29.79 in 10.0 mi South 20.7 mph 29.9 mph N/A   Partly Cloudy
8:54 AM 32.0 °F 19.5 °F 8.1 °F 37% 29.77 in 10.0 mi South 21.9 mph 33.4 mph N/A   Clear
9:54 AM 32.0 °F 19.8 °F 9.0 °F 38% 29.75 in 10.0 mi South 20.7 mph 28.8 mph N/A   Partly Cloudy
10:54 AM 33.1 °F 21.5 °F 9.0 °F 37% 29.74 in 10.0 mi South 19.6 mph 31.1 mph N/A   Scattered Clouds
11:54 AM 36.0 °F 23.5 °F 9.0 °F 33% 29.73 in 10.0 mi SSW 27.6 mph 35.7 mph N/A   Overcast
12:54 PM 36.0 °F 25.6 °F 10.0 °F 34% 29.74 in 10.0 mi SW 18.4 mph 26.5 mph N/A   Overcast
1:49 PM 35.6 °F 22.5 °F 19.4 °F 52% 29.73 in 2.5 mi WSW 29.9 mph 42.6 mph 0.00 in Snow Light Snow
1:54 PM 34.0 °F 21.0 °F 21.0 °F 59% 29.75 in 1.2 mi WSW 26.5 mph 42.6 mph 0.00 in Snow Light Snow
2:03 PM 34.0 °F 22.1 °F 21.0 °F 59% 29.73 in 3.0 mi SW 21.9 mph 35.7 mph 0.00 in Snow Light Snow
2:13 PM 34.0 °F 23.0 °F 24.1 °F 67% 29.74 in 2.0 mi WSW 18.4 mph 29.9 mph 0.00 in Snow Light Snow
2:21 PM 33.1 °F 20.9 °F 25.0 °F 72% 29.76 in 0.8 mi WSW 21.9 mph 29.9 mph 0.00 in Snow Light Snow
2:40 PM 32.0 °F 21.2 °F 28.0 °F 85% 29.76 in 0.5 mi SW 16.1 mph 23.0 mph 0.01 in Fog , Snow Snow
2:47 PM 32.0 °F 22.1 °F 28.9 °F 88% 29.77 in 1.0 mi WSW 13.8 mph - 0.01 in Snow Light Snow
2:54 PM 32.0 °F 21.2 °F 28.9 °F 88% 29.78 in 1.0 mi WSW 16.1 mph 26.5 mph 0.01 in Snow Light Snow
2:59 PM 32.0 °F 21.2 °F 28.9 °F 88% 29.76 in 0.5 mi SW 16.1 mph 25.3 mph 0.00 in Fog , Snow Snow
3:15 PM 32.0 °F 22.1 °F 28.9 °F 88% 29.77 in 2.0 mi SW 13.8 mph - 0.01 in Snow Light Snow
3:29 PM 32.0 °F 23.0 °F 28.9 °F 88% 29.77 in 1.5 mi SW 11.5 mph - 0.01 in Snow Light Snow
3:34 PM 32.0 °F 21.6 °F 30.0 °F 92% 29.77 in 3.0 mi SW 15.0 mph - 0.01 in Snow Light Snow
3:47 PM 33.1 °F 23.9 °F 28.9 °F 85% 29.78 in 10.0 mi SW 12.7 mph - 0.01 in   Scattered Clouds
3:54 PM 33.1 °F 24.4 °F 28.9 °F 85% 29.81 in 10.0 mi SW 11.5 mph - 0.01 in   Scattered Clouds
4:54 PM 33.1 °F 26.9 °F 30.0 °F 89% 29.83 in 10.0 mi SW 6.9 mph - N/A   Overcast
5:54 PM 28.9 °F 21.1 °F 25.0 °F 85% 29.85 in 10.0 mi SSW 8.1 mph - N/A   Clear
6:54 PM 30.9 °F 25.2 °F 24.1 °F 76% 29.87 in 10.0 mi SW 5.8 mph - N/A   Clear
7:54 PM 30.0 °F 20.0 °F 23.0 °F 75% 29.91 in 10.0 mi NNW 12.7 mph - N/A   Clear
8:54 PM 26.1 °F 15.0 °F 19.0 °F 75% 29.96 in 10.0 mi NNW 12.7 mph - N/A   Clear
9:54 PM 25.0 °F 13.6 °F 17.1 °F 72% 29.99 in 10.0 mi NNW 12.7 mph - N/A   Clear
10:54 PM 24.1 °F 14.4 °F 17.1 °F 75% 30.01 in 10.0 mi NNW 9.2 mph - N/A   Clear
11:54 PM 23.0 °F 10.6 °F 16.0 °F 74% 30.03 in 10.0 mi North 13.8 mph - N/A   Clear